アトラス-アフリカーノ彗星

C/2019 F1 ( ATLAS-Africano )

English version
Home page
Updated on August 15, 2020

---------------------------------------------------------------------

・ プロフィール

発見日 2019年3月28日、29日
発見光度 18.3等、18.4等
発見者 Asteroid Terrestrial-Impact Last Alert System (ATLAS) search program, B. M. Africano (Mount Lemmon Survey)

・ 写真集

・ 軌道要素

Epoch 2021 July 5.0 TT = JDT 2459400.5
T 2021 June 22.86047 TT                                 Rudenko
q   3.5956617            (2000.0)            P               Q
z  -0.0010351      Peri.  251.13220     +0.09418946     +0.85665484
 +/-0.0000008      Node    38.72433     -0.27686788     +0.51192490
e   1.0037219      Incl.   54.17469     -0.95628057     -0.06383869
From 1189 observations 2019 Feb. 8-2020 July 31, mean residual 0".4.

・ 星図

・ 光度変化

        m1 = 5.0 + 5 logΔ + 10.0 log r

---------------------------------------------------------------------

軌道要素はM.P.E.C. 2020-P19に掲載されたものです。
星図はステラナビゲータ Ver.10 (アストロアーツ) で作成したものです。
光度グラフはComet for Windowsで作成したものです。

---------------------------------------------------------------------

Copyright(C) Seiichi Yoshida (comet@aerith.net). All rights reserved.